User: anonymous   Login
Location: Aula-Vintri
(58.3875°N, 22.4322°E)
Time: 23:24:04
(UTC+00:00)
Language:

Cosmos 1758 - Orbit

View from above orbital plane
View from above orbital plane
View from above satellite
View from above satellite

Ground track
Ground track

The orbit data is extracted from the following two-line orbital elements,

1 16791U 86046A   19343.18488659  .00000277  00000-0  17476-4 0  9992
2 16791  82.4718 229.8974 0015200 246.4006 113.5625 15.04970653821775
Epoch (UTC): 09 December 2019 04:26:14
Eccentricity: 0.0015200
inclination: 82.4718°
perigee height: 541 km
apogee height: 562 km
right ascension of ascending node: 229.8974°
argument of perigee: 246.4006°
revolutions per day: 15.04970653
mean anomaly at epoch: 113.5625°
orbit number at epoch: 82177

The dashed part of the orbit path shows where the satellite is in the earth's shadow,  

DLR